Location: Ch?enovice
(49.7164°N, 15.2160°E)
Time: 21:14:15
(UTC+00:00)

Meteor 1-4 Rocket - Pass Details

Date: 23 May 2024
Orbit: 357 x 378 km, 81.2° (Epoch: 20 June)

Event Time Altitude Azimuth Distance (km) Brightness Sun altitude
Exits shadow 23:28:46 10° 96° (E) 1,370 4.9 -19.3°
Enters shadow 00:24:52 -71° 194° (SSW) 12,457 9.7 -16.9°
Maximum altitude 01:01:44 41° 285° (WNW) 536 2.6 -14.3°
